Find Hainan-1 01

NORAD ID: 51825 Int'l Des: NNA 2022-019 Owner: SANYZ Country: CN operational
LEOCIRCULARRETROGRADESSO

リアルタイム位置

3D地球を読み込み中...

Hainan-1 01について

説明を読み込み中...

次回通過

Passes for default location (London). Set your location on the main map for personalized predictions.

高度履歴

Loading altitude history...

軌道要素

1 51825U 22019B 26104.86721434 .00041481 00000-0 39829-3 0 9995
2 51825 97.3497 193.7157 0004418 356.8593 3.2639 15.66496479229824
Epoch: Apr 14, 2026 • Age: 6 hours

現在のステータス

高度 396.2 km
速度 7.67 km/s
衛星直下点 -71.88°S, 110.26°E
打ち上げ日 Feb 27, 2022
運用期間 4.1 years
タイプ other

技術仕様

分類 Payload
質量 55.00 kg
乾燥質量 55.00 kg
総質量 55.00 kg
長さ 0.50 m
直径 0.50 m
スパン 2.00 m
形状 Box + 2 pan
製造者 DFHS
バスタイプ Hainan-1
フェーズステータス In Orbit
所有者/国 SANYZ/CN

Most Searched